GOES 19

Last updated on Mon Nov 03 2025 00:02:25 GMT+0000 (Coordinated Universal Time)

1 60133U 24119A 25306.45157601 -.00000236 00000+0 00000+0 0 9995 2 60133 0.0144 108.8221 0001025 171.5574 209.0127 1.00270441 4693
UTC large
Height (km)
Speed (km/s)
/
Latitude / Longitude
Inclination (degrees)
Orbital Period (minutes)
Azimuth
Elevation
Range (km)
Doppler Factor

Next 0 passes for location: London (51.5072 / 0.1276)

Sorry there are no passes over London.